Weather History for Newport Airport, OR

Change the Weather History Date:

Saturday, February 15, 2014

  Actual Average Record
Temperature  
Mean Temperature 47 °F -  
Max Temperature 53 °F 50 °F 60 °F (2004)
Min Temperature 41 °F 40 °F 28 °F (2006)
Degree Days  
Heating Degree Days 18    
Moisture  
Dew Point 47 °F    
Average Humidity 94    
Maximum Humidity 100    
Minimum Humidity 81    
Precipitation  
Precipitation 1.17 in - - ()
Sea Level Pressure  
Sea Level Pressure 29.67 in    
Wind  
Wind Speed 14 mph (South)    
Max Wind Speed 47 mph    
Max Gust Speed 63 mph    
Visibility 6 miles    
Events Rain    
Averages and records for this station are not official NWS values.
T = Trace of Precipitation, MM = Missing Value Source: NWS Daily Summary

Daily Weather History Graph

Daily Weather History Graph

Search for Another Location

Airport:

Trip Planner

Search our weather history database for the weather conditions in past years. The results will help you decide how hot, cold, wet, or windy it might be!

Date:

Astronomy

Feb. 15, 2014 Rise Set
Actual Time 7:16 AM PST 5:45 PM PST
Civil Twilight 6:46 AM PST 6:15 PM PST
Nautical Twilight 6:12 AM PST 6:49 PM PST
Astronomical Twilight 5:38 AM PST 7:23 PM PST
Moon 6:55 PM PST (2/15) 7:14 AM PST (2/15)
Length of Visible Light 11h 28m
Length of Day
10h 28m
Full, 99% of the Moon is Illuminated
Feb 15
Full
Feb 22
Last Quarter
Mar 1
New
Mar 8
First Quarter
Mar 16
Full

Hourly Weather History & Observations

Time (PST) Temp. Windchill Dew Point Humidity Pressure Visibility Wind Dir Wind Speed Gust Speed Precip Events Conditions
12:15 AM 46.4 °F 45.2 °F 44.6 °F 93% 29.93 in 10.0 mi East 3.5 mph - N/A   Overcast
12:35 AM 46.4 °F 44.3 °F 44.6 °F 93% 29.92 in 10.0 mi ESE 4.6 mph - N/A   Light Drizzle
12:55 AM 46.4 °F 45.2 °F 46.4 °F 100% 29.91 in 10.0 mi ESE 3.5 mph - N/A   Overcast
1:15 AM 46.4 °F 43.5 °F 44.6 °F 93% 29.90 in 10.0 mi East 5.8 mph - N/A Rain Rain
1:35 AM 46.4 °F 44.3 °F 44.6 °F 93% 29.88 in 10.0 mi East 4.6 mph - N/A Rain Light Rain
1:55 AM 46.4 °F 45.2 °F 44.6 °F 93% 29.87 in 10.0 mi East 3.5 mph - N/A   Light Drizzle
2:15 AM 46.4 °F 45.2 °F 44.6 °F 93% 29.86 in 7.0 mi East 3.5 mph - 0.02 in Rain Light Rain
2:35 AM 46.4 °F 43.5 °F 44.6 °F 93% 29.85 in 10.0 mi ENE 5.8 mph - 0.02 in   Light Drizzle
2:55 AM 46.4 °F 41.9 °F 44.6 °F 93% 29.83 in 10.0 mi East 9.2 mph - 0.02 in   Overcast
3:15 AM 46.4 °F 42.4 °F 44.6 °F 93% 29.82 in 10.0 mi East 8.1 mph - N/A   Drizzle
3:35 AM 46.4 °F 42.4 °F 44.6 °F 93% 29.81 in 10.0 mi East 8.1 mph - 0.01 in Rain Rain
3:55 AM 46.4 °F 41.5 °F 44.6 °F 93% 29.79 in 10.0 mi East 10.4 mph - 0.01 in Rain Light Rain
4:15 AM 46.4 °F 41.9 °F 44.6 °F 93% 29.77 in 10.0 mi East 9.2 mph - N/A   Overcast
4:35 AM 46.4 °F 41.9 °F 44.6 °F 93% 29.76 in 7.0 mi East 9.2 mph - N/A Rain Rain
4:55 AM 46.4 °F 42.9 °F 44.6 °F 93% 29.75 in 7.0 mi East 6.9 mph - N/A   Drizzle
5:15 AM 46.4 °F 42.9 °F 44.6 °F 93% 29.74 in 7.0 mi East 6.9 mph - 0.01 in Rain Rain
5:35 AM 46.4 °F 43.5 °F 44.6 °F 93% 29.73 in 7.0 mi East 5.8 mph - 0.02 in Rain Light Rain
5:55 AM 46.4 °F 43.5 °F 44.6 °F 93% 29.71 in 7.0 mi ESE 5.8 mph - 0.04 in Rain Light Rain
6:15 AM 46.4 °F 43.5 °F 46.4 °F 100% 29.70 in 10.0 mi East 5.8 mph - 0.01 in Rain Rain
6:35 AM 46.4 °F 42.4 °F 46.4 °F 100% 29.68 in 7.0 mi East 8.1 mph - 0.02 in Rain Light Rain
6:55 AM 46.4 °F 43.5 °F 46.4 °F 100% 29.67 in 4.0 mi ESE 5.8 mph - 0.08 in Rain Rain
7:15 AM 48.2 °F - 46.4 °F 93% 29.66 in 5.0 mi East 8.1 mph - 0.06 in Rain Rain
7:35 AM 50.0 °F - 48.2 °F 94% 29.65 in 7.0 mi SSE 9.2 mph - 0.10 in Rain Rain
7:55 AM 50.0 °F - 50.0 °F 100% 29.64 in 5.0 mi SE 6.9 mph - 0.14 in Rain Heavy Rain
8:15 AM 50.0 °F - 50.0 °F 100% 29.63 in 4.0 mi SE 8.1 mph - 0.05 in Rain Rain
8:35 AM 50.0 °F - 50.0 °F 100% 29.62 in 3.0 mi SE 8.1 mph - 0.13 in Rain Rain
8:55 AM 50.0 °F - 50.0 °F 100% 29.61 in 4.0 mi SSE 9.2 mph - 0.21 in Rain Heavy Rain
9:15 AM 50.0 °F - 50.0 °F 100% 29.60 in 4.0 mi SSE 6.9 mph 18.4 mph 0.07 in Rain Rain
9:35 AM 51.8 °F - 51.8 °F 100% 29.59 in 3.0 mi South 21.9 mph 28.8 mph 0.16 in Rain Rain
9:55 AM 53.6 °F - 51.8 °F 94% 29.58 in 5.0 mi South 27.6 mph 38.0 mph 0.19 in Rain Light Rain
10:15 AM 53.6 °F - 51.8 °F 94% 29.57 in 4.0 mi South 23.0 mph 41.4 mph 0.02 in Rain Rain
10:35 AM 51.8 °F - 51.8 °F 100% 29.56 in 3.0 mi South 32.2 mph 42.6 mph 0.04 in Rain Light Rain
10:55 AM 51.8 °F - 51.8 °F 100% 29.55 in 2.5 mi South 26.5 mph 44.9 mph 0.06 in Rain Rain
11:15 AM 51.8 °F - 51.8 °F 100% 29.55 in 3.0 mi SSW 33.4 mph 42.6 mph 0.01 in Rain Light Rain
11:35 AM 51.8 °F - 51.8 °F 100% 29.54 in 2.5 mi South 29.9 mph 42.6 mph 0.03 in Rain Rain
11:55 AM 51.8 °F - 51.8 °F 100% 29.52 in 3.0 mi South 32.2 mph 55.2 mph 0.05 in Rain Rain
12:15 PM 51.8 °F - 50.0 °F 94% 29.51 in 2.5 mi South 33.4 mph 52.9 mph 0.02 in Rain Light Rain
12:35 PM 51.8 °F - 51.8 °F 100% 29.49 in 3.0 mi South 38.0 mph 55.2 mph 0.03 in Rain Light Rain
12:55 PM 51.8 °F - 51.8 °F 100% 29.49 in 1.8 mi South 33.4 mph 47.2 mph 0.06 in Rain Rain
1:15 PM 51.8 °F - 51.8 °F 100% 29.48 in 1.5 mi South 35.7 mph 54.1 mph 0.05 in Rain Heavy Rain
1:35 PM 51.8 °F - 51.8 °F 100% 29.50 in 1.8 mi South 38.0 mph 50.6 mph 0.11 in Rain Rain
1:55 PM 51.8 °F - 51.8 °F 100% 29.44 in 2.5 mi South 47.2 mph 63.3 mph 0.14 in Rain Light Rain
2:15 PM 51.8 °F - 51.8 °F 100% 29.44 in 1.8 mi South 39.1 mph 57.5 mph 0.01 in Rain Light Rain
2:35 PM 51.8 °F - 51.8 °F 100% 29.43 in 2.0 mi South 40.3 mph 57.5 mph 0.01 in Rain Light Rain
2:55 PM 51.8 °F - 51.8 °F 100% 29.42 in 2.5 mi South 35.7 mph 59.8 mph 0.03 in Rain Light Rain
3:15 PM 51.8 °F - 51.8 °F 100% 29.39 in 1.5 mi South 38.0 mph 51.8 mph 0.02 in Rain Rain
3:35 PM 51.8 °F - 50.0 °F 94% 29.42 in 1.0 mi SW 34.5 mph 46.0 mph 0.10 in Rain Heavy Rain
3:55 PM 48.2 °F - 48.2 °F 100% 29.38 in 4.0 mi SW 29.9 mph 40.3 mph 0.11 in   Overcast
4:15 PM 48.2 °F - 48.2 °F 100% 29.45 in 4.0 mi SSW 26.5 mph 34.5 mph N/A   Overcast
4:35 PM 48.2 °F - 48.2 °F 100% 29.47 in 4.0 mi SSW 26.5 mph 38.0 mph N/A   Overcast
4:55 PM 48.2 °F - 48.2 °F 100% 29.48 in 4.0 mi SSW 25.3 mph 33.4 mph N/A   Overcast
5:15 PM 46.4 °F 38.3 °F 46.4 °F 100% 29.53 in 4.0 mi West 23.0 mph 44.9 mph N/A Rain Light Rain
5:35 PM 44.6 °F 36.6 °F 42.8 °F 93% 29.60 in 4.0 mi West 19.6 mph 33.4 mph 0.01 in   Drizzle
5:55 PM 46.4 °F 41.5 °F 42.8 °F 87% 29.60 in 7.0 mi WSW 10.4 mph 20.7 mph 0.01 in Rain Light Rain
6:15 PM 46.4 °F 40.4 °F 42.8 °F 87% 29.67 in 7.0 mi SW 13.8 mph - N/A   Overcast
6:35 PM 46.4 °F 40.7 °F 42.8 °F 87% 29.69 in 7.0 mi SSW 12.7 mph - N/A   Overcast
6:55 PM 46.4 °F 40.1 °F 42.8 °F 87% 29.69 in 7.0 mi SSW 15.0 mph - N/A   Overcast
7:15 PM 46.4 °F 40.4 °F 42.8 °F 87% 29.70 in 7.0 mi South 13.8 mph 19.6 mph N/A   Overcast
7:35 PM 46.4 °F 39.0 °F 44.6 °F 93% 29.72 in 7.0 mi SSW 19.6 mph 24.2 mph N/A   Overcast
7:55 PM 46.4 °F 39.2 °F 44.6 °F 93% 29.73 in 7.0 mi SSW 18.4 mph 27.6 mph N/A   Mostly Cloudy
8:15 PM 48.2 °F - 44.6 °F 87% 29.75 in 7.0 mi SSW 20.7 mph 29.9 mph N/A   Mostly Cloudy
8:35 PM 48.2 °F - 44.6 °F 87% 29.76 in 7.0 mi SSW 21.9 mph 32.2 mph N/A   Mostly Cloudy
8:55 PM 48.2 °F - 44.6 °F 87% 29.77 in 7.0 mi SW 23.0 mph 29.9 mph N/A   Scattered Clouds
9:15 PM 46.4 °F 39.0 °F 41.0 °F 81% 29.78 in 7.0 mi SW 19.6 mph 26.5 mph N/A   Scattered Clouds
9:35 PM 46.4 °F 39.0 °F 42.8 °F 87% 29.80 in 5.0 mi WSW 19.6 mph 27.6 mph N/A Rain Rain
9:55 PM 44.6 °F 38.8 °F 41.0 °F 87% 29.81 in 7.0 mi SW 11.5 mph 17.3 mph N/A   Overcast
10:15 PM 46.4 °F 39.2 °F 41.0 °F 81% 29.83 in 7.0 mi SW 18.4 mph 25.3 mph N/A   Mostly Cloudy
10:35 PM 46.4 °F 39.2 °F 41.0 °F 81% 29.84 in 7.0 mi SW 18.4 mph 23.0 mph N/A   Mostly Cloudy
10:55 PM 46.4 °F 39.0 °F 41.0 °F 81% 29.85 in 7.0 mi SW 19.6 mph 27.6 mph N/A   Mostly Cloudy
11:15 PM 44.6 °F 36.9 °F 39.2 °F 81% 29.87 in 7.0 mi WSW 18.4 mph 31.1 mph N/A   Mostly Cloudy
11:35 PM 41.0 °F 31.9 °F 37.4 °F 87% - 7.0 mi SW 19.6 mph 27.6 mph 0.02 in   Overcast
11:55 PM 42.8 °F 34.8 °F 41.0 °F 93% 29.84 in 7.0 mi SW 17.3 mph 21.9 mph 0.02 in   Light Drizzle